Location: Barcelona
(41.3830°N, 2.1830°E)
Time: 02:01:51
(UTC+01:00)

ISS - Visible Passes

Search period start: 19 December 2018 00:00
Search period end: 29 December 2018 00:00
Orbit: 401 x 408 km, 51.6° (Epoch: 19 December)

Date Brightness Start Highest point End Pass type
(mag) Time Alt. Az. Time Alt. Az. Time Alt. Az.
22 Dec -0.5 07:02:41 10° SSE 07:04:22 13° SE 07:06:02 10° E visible
24 Dec -1.9 06:53:10 10° SSW 06:56:07 31° SE 06:59:05 10° ENE visible
25 Dec -0.9 06:01:59 11° S 06:04:04 17° SE 06:06:15 10° E visible
25 Dec -3.7 07:37:00 10° WSW 07:40:14 56° NNW 07:43:30 10° NE visible
26 Dec -3.8 06:45:58 21° SW 06:47:59 78° SE 06:51:16 10° ENE visible
27 Dec -1.9 05:56:44 31° E 05:56:44 31° E 05:58:53 10° ENE visible
27 Dec -2.8 07:29:26 10° W 07:32:18 29° NNW 07:35:16 10° NE visible
28 Dec -3.5 06:39:53 46° NNW 06:39:55 46° NNW 06:43:07 10° NE visible
